Temp
84 83 83 84 82 82 82 82 82 83 83 83 83 84 84 83 83 84 83 83 82 82 83 83 83 83 83 84 84 84 84 84 83 82 82 81 82 81 80 81 82 82 83 83 84 85 85 86 86 87 84 82 84 90 88 88 88 89 87 86 86 88 90
84 84 83 84 82 81 81 82 82 82 83 83 83 83 84 83 83 84 83 83 83 82 83 83 83 83 83 83 84 84 83 84 84 84 83 83 83 82 82 82 82 82 83 84 84 85 85 87 87 86 87 87 86 83 83 88 87 87 86 84 86 88 89
84 84 83 82 82 82 81 82 82 83 83 84 84 84 83 82 84 83 84 83 82 83 83 83 83 84 83 83 83 83 84 84 83 83 83 83 83 84 84 83 83 83 85 86 85 86 87 86 85 86 86 86 87 84 83 82 87 88 86 83 85 89 87
82 83 83 82 81 81 81 82 82 83 84 84 83 84 84 84 85 85 84 84 82 82 82 82 83 83 83 83 83 83 83 83 83 83 83 83 83 83 83 84 84 85 84 85 87 87 88 87 87 86 85 85 85 84 83 81 85 90 88 85 87 88 86
81 82 82 82 82 81 82 82 82 83 83 84 84 84 85 85 86 86 85 84 83 82 83 83 83 84 84 84 84 83 83 83 83 83 83 84 83 83 84 84 85 86 85 87 87 85 84 84 86 86 86 85 84 81 78 79 80 85 87 86 85 83 84
82 81 81 81 81 81 82 83 83 84 83 83 83 84 86 85 86 86 84 84 83 83 83 83 83 83 83 84 83 83 83 84 83 83 83 83 83 83 84 84 84 86 85 86 88 87 85 85 84 84 84 85 84 82 82 83 83 82 87 87 87 85 82
82 83 82 82 83 82 83 83 84 84 86 85 84 85 85 85 87 85 84 83 83 82 83 82 83 83 82 82 82 82 82 83 83 83 84 83 83 83 84 84 85 87 87 85 85 84 82 82 82 82 83 84 84 84 82 80 80 79 83 85 85 85 83
82 82 82 84 85 86 86 84 84 86 85 84 84 84 83 86 87 85 84 84 84 83 83 82 82 81 81 81 82 81 82 82 83 83 83 83 83 83 84 85 84 85 85 84 84 83 83 83 85 85 84 85 84 83 81 79 78 81 84 78 83 85 86
83 82 82 84 85 85 86 84 83 84 83 82 82 82 82 83 83 83 83 83 83 82 82 82 81 81 81 81 81 81 82 82 82 83 82 82 82 83 84 84 84 84 84 83 83 84 84 84 84 84 85 84 82 82 83 82 82 83 79 80 85 85 87
82 81 81 82 83 84 82 82 83 83 82 82 81 81 82 81 81 82 82 82 82 82 81 81 81 81 81 80 81 81 81 81 82 81 81 81 82 82 83 83 83 84 83 83 84 84 85 84 83 82 81 80 81 81 81 81 81 80 80 80 85 85 85
83 81 81 81 81 81 81 81 80 80 81 80 81 81 81 80 80 80 81 82 81 81 81 80 81 80 80 80 80 80 80 80 81 81 81 81 82 82 82 83 83 84 83 83 83 82 82 82 81 79 79 79 80 79 80 82 81 80 78 77 85 85 86
81 80 79 80 80 79 79 79 80 80 80 81 83 81 80 80 80 80 80 80 81 80 80 80 82 80 79 79 79 79 79 80 80 80 81 81 81 82 82 82 82 83 83 83 82 82 82 81 82 81 78 79 80 79 79 81 81 80 81 81 82 83 85
81 80 79 79 79 79 79 78 79 79 80 81 81 80 80 80 79 79 79 80 80 80 80 80 79 79 78 79 79 79 79 79 80 80 80 80 81 81 81 82 82 82 82 83 82 82 82 82 81 81 80 78 77 77 79 80 80 80 80 80 81 81 82
79 80 79 78 78 78 78 78 79 79 79 79 79 80 80 80 80 79 79 78 79 79 79 80 79 78 78 78 78 78 78 79 80 80 80 80 80 80 81 81 81 81 82 82 81 81 82 82 81 82 82 79 76 75 75 76 78 79 79 79 79 81 80
78 78 78 78 78 78 78 78 78 78 79 79 79 79 79 79 78 79 78 79 79 79 78 79 78 77 77 77 77 78 78 79 79 80 80 79 79 79 80 80 80 81 81 81 81 82 82 82 81 80 79 80 79 77 76 76 76 77 77 77 76 76 80
78 78 79 81 80 79 79 79 79 79 79 79 79 78 78 78 77 77 77 77 78 78 78 78 77 77 77 77 77 77 78 78 78 78 78 78 78 79 79 79 80 80 80 80 81 81 81 81 80 79 79 77 76 77 78 78 77 76 73 74 75 75 75
78 78 79 78 79 79 78 79 79 79 79 79 78 78 78 77 77 78 77 78 77 77 78 78 76 76 76 76 77 77 77 77 77 77 77 77 78 78 78 78 79 79 79 80 80 80 81 80 80 79 78 78 79 77 75 76 77 74 70 70 72 75 75
77 77 78 78 78 78 78 78 79 78 79 79 78 78 78 77 77 77 77 77 77 77 78 77 77 76 76 76 77 77 77 77 77 77 77 77 77 78 78 78 79 78 79 79 79 80 81 80 80 80 79 80 80 79 79 78 75 69 68 68 68 71 73
78 78 78 78 77 77 78 78 78 78 79 79 79 78 79 78 77 76 77 77 77 78 77 77 76 76 76 77 77 76 77 77 76 76 76 77 77 77 78 78 78 78 78 78 80 80 79 80 79 80 81 81 79 79 81 81 75 67 67 67 67 68 71
79 79 78 78 78 78 78 80 80 80 79 79 80 80 80 79 78 78 78 78 78 77 77 76 76 76 76 76 76 77 77 76 76 76 76 76 76 77 77 77 77 78 78 78 79 78 79 80 79 80 79 80 79 78 79 80 77 67 67 67 66 67 69
78 78 78 78 78 79 79 78 79 80 80 80 80 80 79 79 79 78 78 78 77 77 76 76 75 76 76 75 76 76 76 76 75 75 76 76 76 76 76 76 76 77 78 78 78 78 78 78 79 79 80 80 80 79 78 79 72 67 66 65 65 66 69
79 79 78 80 79 79 78 80 79 79 79 79 80 80 80 79 79 78 77 78 77 76 76 76 75 75 76 75 76 76 75 75 75 75 75 75 76 75 75 76 76 76 77 77 78 78 79 79 79 79 79 80 80 79 78 80 70 66 65 64 64 66 71
80 79 80 80 81 80 79 80 79 80 79 79 80 79 78 78 78 77 77 76 77 76 76 75 75 75 75 75 75 75 75 75 74 74 75 75 75 75 75 75 76 77 78 77 77 77 77 78 79 79 80 80 80 79 79 80 72 64 64 63 63 65 71
82 82 82 81 80 80 80 80 81 80 80 79 78 79 79 78 77 77 76 75 76 75 75 75 75 75 75 74 74 74 74 74 74 74 74 74 74 74 75 75 76 76 77 76 76 76 77 77 78 79 80 79 79 80 79 80 77 64 63 62 62 67 71
84 85 83 82 80 79 80 80 79 78 78 78 77 78 79 78 77 76 75 75 75 75 74 74 74 74 74 74 75 75 74 74 74 74 74 73 74 75 74 75 75 76 77 77 77 76 77 77 77 79 80 80 79 78 78 79 78 64 62 61 62 66 73
81 82 82 82 82 82 81 80 79 78 78 77 77 79 79 79 77 76 75 75 75 75 74 74 74 74 75 75 75 75 74 75 74 74 74 74 74 75 75 75 75 76 76 76 77 77 78 77 78 77 79 79 79 80 80 79 80 77 61 61 61 62 71
82 81 82 83 82 80 80 80 79 79 78 78 78 78 79 79 77 76 75 74 74 74 75 75 75 75 74 74 74 75 74 75 74 74 74 75 74 75 75 75 75 75 75 75 75 75 75 75 76 77 77 78 79 78 78 79 78 78 63 60 60 61 65
83 84 85 83 80 78 79 80 80 80 80 79 79 78 78 78 75 74 74 75 74 75 77 76 75 75 74 74 74 74 74 74 75 75 75 75 75 74 74 75 75 76 75 75 74 72 72 73 74 75 77 78 79 78 78 78 76 77 68 60 59 59 61
80 81 81 80 80 81 79 79 79 79 78 79 79 78 77 77 74 74 74 73 74 77 77 76 76 75 74 74 74 74 74 74 75 74 75 75 75 74 73 74 75 75 75 74 73 72 71 72 74 75 76 77 78 79 79 78 77 72 76 66 58 58 58
80 81 82 85 85 82 79 77 78 79 80 79 78 77 77 75 74 73 73 73 75 76 76 76 75 74 74 74 74 73 74 75 75 75 75 74 74 73 73 73 74 74 74 72 71 70 71 73 75 75 76 76 76 78 78 78 77 76 73 73 64 59 57
80 80 81 81 81 80 78 77 76 77 77 78 77 78 76 76 74 73 72 74 75 74 74 75 75 74 73 73 74 74 75 75 75 75 75 75 75 73 72 72 73 72 73 73 71 71 71 72 72 71 74 76 75 76 76 77 78 78 75 69 70 62 59
80 80 81 80 79 78 77 78 78 77 75 76 77 77 76 77 76 73 73 75 75 75 74 74 72 72 72 74 74 75 75 75 76 76 76 76 75 74 73 72 72 72 73 73 73 72 72 73 74 72 72 72 76 76 76 77 77 76 76 75 74 71 64
78 78 77 76 77 77 76 77 77 75 74 74 76 77 78 77 76 75 75 74 75 76 74 73 72 71 72 72 74 75 75 74 75 77 77 77 76 75 74 73 72 72 71 72 72 72 72 73 73 73 70 69 76 77 77 76 75 76 76 77 76 77 76
77 77 77 77 76 76 76 75 74 74 74 74 76 76 76 76 75 76 75 75 75 75 74 72 71 71 72 74 75 74 75 74 73 74 76 77 76 74 74 74 73 72 71 73 74 73 72 74 73 74 77 78 78 77 76 76 76 74 72 72 74 74 75
76 76 76 75 75 75 74 74 74 73 74 74 75 75 75 74 75 75 75 75 75 73 72 72 71 71 72 73 74 74 74 75 76 75 75 75 74 75 74 72 72 73 74 77 77 76 75 75 76 75 76 79 78 76 76 76 76 76 65 67 60 66 72
75 75 75 76 76 75 75 74 74 74 74 74 75 74 74 74 75 75 75 75 74 74 71 70 70 71 72 74 74 75 75 74 73 74 74 75 74 74 74 73 66 68 74 75 72 66 60 59 71 76 78 77 77 77 75 77 78 61 53 53 52 50 50
74 74 74 75 74 74 73 73 74 74 73 74 74 73 74 74 74 74 74 74 74 73 71 70 69 70 72 73 74 73 72 72 72 72 72 73 73 73 72 73 75 57 55 61 66 62 56 51 52 53 57 65 72 72 62 60 57 53 51 50 49 47 46
75 74 74 74 73 73 73 73 73 73 73 73 73 74 74 74 74 73 76 75 73 72 71 70 68 68 69 70 71 71 70 71 71 71 71 71 71 71 70 71 70 73 59 51 55 56 52 51 50 49 50 52 55 64 72 64 55 50 49 48 47 46 45
MSLP
1016.36 1016.44 1016.48 1016.52 1016.80 1016.76 1016.76 1016.72 1016.60 1016.52 1016.44 1016.40 1016.28 1016.16 1016.00 1016.04 1015.96 1015.76 1015.84 1015.72 1015.72 1015.64 1015.44 1015.24 1015.12 1014.92 1014.84 1014.64 1014.44 1014.32 1014.12 1014.12 1014.04 1014.12 1014.04 1014.00 1013.88 1013.88 1013.88 1013.72 1013.60 1013.48 1013.32 1013.28 1013.00 1012.88 1012.60 1012.44 1012.48 1012.40 1012.60 1012.96 1012.68 1012.00 1012.08 1012.12 1012.28 1012.48 1012.72 1012.88 1013.00 1012.80 1012.68
1016.32 1016.28 1016.48 1016.44 1016.72 1016.88 1016.84 1016.64 1016.56 1016.52 1016.40 1016.24 1016.20 1016.12 1016.00 1016.08 1015.88 1015.84 1015.80 1015.68 1015.68 1015.64 1015.44 1015.24 1015.16 1014.96 1014.88 1014.72 1014.44 1014.36 1014.36 1014.20 1014.00 1013.88 1013.80 1013.72 1013.56 1013.48 1013.36 1013.36 1013.28 1013.20 1013.04 1012.84 1012.72 1012.52 1012.40 1012.20 1012.16 1012.24 1012.24 1012.12 1012.16 1012.28 1012.36 1011.92 1011.96 1012.08 1012.40 1012.72 1012.88 1012.56 1012.44
1016.28 1016.24 1016.48 1016.72 1016.68 1016.88 1016.88 1016.64 1016.60 1016.44 1016.32 1016.20 1016.20 1016.12 1016.12 1016.08 1015.84 1015.84 1015.72 1015.68 1015.72 1015.56 1015.36 1015.28 1015.12 1014.96 1014.88 1014.76 1014.72 1014.52 1014.28 1014.16 1014.08 1013.96 1013.92 1013.72 1013.52 1013.24 1013.00 1012.92 1012.92 1012.84 1012.56 1012.32 1012.32 1012.24 1012.00 1012.04 1011.92 1011.88 1011.88 1011.88 1011.84 1012.00 1012.20 1012.36 1011.80 1011.72 1011.92 1012.40 1012.40 1012.20 1012.28
1016.36 1016.40 1016.44 1016.60 1016.72 1016.76 1016.72 1016.64 1016.60 1016.44 1016.20 1016.12 1016.20 1016.08 1015.96 1015.80 1015.52 1015.44 1015.52 1015.60 1015.72 1015.64 1015.64 1015.36 1015.12 1015.00 1014.84 1014.80 1014.68 1014.52 1014.48 1014.24 1014.04 1013.96 1013.80 1013.56 1013.40 1013.08 1013.00 1012.76 1012.52 1012.32 1012.32 1012.24 1011.92 1011.76 1011.64 1011.64 1011.64 1011.60 1011.68 1011.68 1011.72 1011.76 1011.96 1012.40 1011.96 1011.36 1011.36 1011.60 1011.72 1011.72 1011.96
1016.40 1016.36 1016.40 1016.56 1016.64 1016.72 1016.64 1016.60 1016.52 1016.40 1016.36 1016.08 1016.00 1015.92 1015.64 1015.52 1015.32 1015.24 1015.36 1015.36 1015.40 1015.60 1015.36 1015.24 1015.04 1014.92 1014.68 1014.56 1014.60 1014.48 1014.36 1014.24 1014.08 1013.84 1013.68 1013.44 1013.24 1013.04 1012.88 1012.72 1012.44 1012.20 1011.96 1011.72 1011.56 1011.64 1011.60 1011.60 1011.52 1011.40 1011.32 1011.40 1011.52 1011.64 1011.80 1011.76 1011.84 1011.36 1011.00 1011.08 1011.48 1011.72 1012.04
1016.36 1016.52 1016.56 1016.56 1016.56 1016.60 1016.52 1016.36 1016.24 1016.12 1016.20 1016.20 1016.16 1015.96 1015.60 1015.52 1015.32 1015.40 1015.36 1015.32 1015.32 1015.16 1015.04 1014.96 1014.96 1014.84 1014.84 1014.64 1014.56 1014.44 1014.20 1013.96 1013.80 1013.72 1013.60 1013.40 1013.24 1013.08 1012.88 1012.56 1012.32 1012.04 1011.84 1011.64 1011.36 1011.28 1011.32 1011.28 1011.24 1011.24 1011.24 1011.04 1011.16 1011.28 1011.28 1011.32 1011.20 1011.16 1010.68 1010.64 1010.72 1011.08 1011.68
1016.04 1016.00 1016.32 1016.24 1016.20 1016.32 1016.20 1016.20 1016.08 1016.04 1015.80 1015.80 1015.84 1015.72 1015.64 1015.52 1015.32 1015.40 1015.40 1015.48 1015.40 1015.40 1015.20 1015.04 1014.84 1014.72 1014.68 1014.56 1014.44 1014.36 1014.28 1014.00 1013.72 1013.60 1013.40 1013.28 1013.12 1013.00 1012.72 1012.40 1012.08 1011.76 1011.44 1011.32 1011.40 1011.28 1011.36 1011.32 1011.24 1011.16 1011.04 1010.92 1010.84 1010.88 1010.96 1011.08 1011.04 1011.20 1011.00 1010.52 1010.60 1010.64 1011.04
1015.80 1016.08 1016.04 1015.84 1015.64 1015.44 1015.56 1015.88 1015.84 1015.60 1015.72 1015.76 1015.88 1015.88 1015.92 1015.48 1015.36 1015.44 1015.48 1015.44 1015.36 1015.36 1015.28 1015.28 1015.04 1014.88 1014.72 1014.44 1014.24 1014.20 1014.08 1013.84 1013.60 1013.40 1013.28 1013.20 1013.00 1012.84 1012.60 1012.28 1012.00 1011.68 1011.44 1011.40 1011.12 1011.04 1011.04 1011.00 1010.88 1010.56 1010.48 1010.44 1010.40 1010.48 1010.48 1010.60 1010.88 1010.72 1010.40 1011.12 1010.56 1010.40 1010.52
1015.68 1015.84 1015.84 1015.60 1015.56 1015.56 1015.56 1015.72 1015.96 1015.80 1015.92 1016.00 1016.00 1015.96 1015.80 1015.72 1015.72 1015.60 1015.52 1015.40 1015.28 1015.32 1015.24 1015.04 1014.96 1014.72 1014.60 1014.52 1014.36 1014.12 1013.84 1013.64 1013.44 1013.24 1013.16 1013.12 1012.88 1012.64 1012.40 1012.12 1011.88 1011.56 1011.52 1011.28 1011.00 1010.72 1010.64 1010.52 1010.48 1010.48 1010.28 1010.24 1010.28 1010.24 1010.08 1010.00 1010.04 1009.96 1010.44 1010.56 1009.84 1009.96 1010.08
1015.68 1016.00 1016.00 1015.92 1015.80 1015.72 1015.96 1016.00 1015.84 1015.84 1015.96 1016.00 1016.00 1015.96 1015.92 1015.84 1015.72 1015.60 1015.44 1015.32 1015.20 1015.20 1015.04 1014.92 1014.76 1014.56 1014.48 1014.36 1014.20 1013.96 1013.76 1013.60 1013.32 1013.20 1013.00 1012.92 1012.64 1012.52 1012.20 1011.92 1011.72 1011.44 1011.32 1011.08 1010.76 1010.60 1010.32 1010.24 1010.24 1010.24 1010.32 1010.32 1010.24 1010.08 1010.00 1009.88 1009.76 1009.76 1009.84 1009.88 1009.48 1009.48 1009.60
1015.52 1015.80 1016.00 1016.08 1016.08 1016.12 1016.20 1016.16 1016.20 1016.24 1016.08 1016.08 1015.92 1015.84 1015.84 1015.84 1015.72 1015.64 1015.44 1015.24 1015.20 1015.04 1014.80 1014.68 1014.44 1014.40 1014.36 1014.20 1014.12 1013.84 1013.68 1013.52 1013.24 1013.12 1012.92 1012.72 1012.40 1012.20 1011.92 1011.72 1011.52 1011.24 1011.12 1010.88 1010.72 1010.48 1010.32 1010.20 1010.12 1010.20 1010.24 1010.16 1009.96 1009.88 1009.72 1009.48 1009.40 1009.44 1009.72 1009.76 1009.08 1009.04 1009.16
1015.72 1015.92 1016.24 1016.12 1016.16 1016.36 1016.48 1016.40 1016.28 1016.20 1016.16 1016.00 1015.80 1015.84 1015.84 1015.80 1015.68 1015.52 1015.40 1015.24 1014.96 1014.92 1014.76 1014.60 1014.28 1014.28 1014.20 1014.04 1013.92 1013.76 1013.56 1013.36 1013.12 1012.96 1012.76 1012.52 1012.24 1011.96 1011.68 1011.48 1011.36 1011.16 1010.84 1010.60 1010.60 1010.32 1010.08 1010.08 1009.92 1009.96 1010.04 1009.92 1009.64 1009.56 1009.56 1009.20 1009.12 1009.08 1008.92 1008.68 1008.64 1008.64 1008.76
1015.56 1015.88 1016.08 1016.24 1016.32 1016.36 1016.40 1016.48 1016.40 1016.32 1016.16 1016.00 1015.96 1015.96 1015.92 1015.80 1015.72 1015.60 1015.48 1015.32 1015.04 1014.84 1014.76 1014.52 1014.40 1014.28 1014.20 1013.96 1013.76 1013.56 1013.40 1013.16 1012.96 1012.72 1012.56 1012.32 1012.04 1011.72 1011.48 1011.32 1011.12 1010.96 1010.80 1010.44 1010.32 1010.16 1009.96 1009.72 1009.76 1009.56 1009.56 1009.56 1009.56 1009.60 1009.28 1009.04 1008.84 1008.72 1008.52 1008.36 1008.24 1008.28 1008.44
1015.56 1015.84 1016.00 1016.24 1016.44 1016.56 1016.60 1016.48 1016.36 1016.28 1016.20 1016.12 1016.04 1015.84 1015.76 1015.68 1015.60 1015.60 1015.52 1015.44 1015.12 1014.92 1014.76 1014.56 1014.44 1014.32 1014.16 1013.92 1013.72 1013.52 1013.24 1012.96 1012.68 1012.52 1012.32 1012.04 1011.84 1011.60 1011.36 1011.16 1010.96 1010.76 1010.48 1010.28 1010.20 1010.00 1009.76 1009.60 1009.52 1009.24 1009.12 1009.24 1009.32 1009.32 1009.24 1009.20 1008.96 1008.64 1008.48 1008.28 1008.32 1008.28 1008.44
1015.96 1016.08 1016.20 1016.36 1016.40 1016.40 1016.36 1016.44 1016.40 1016.20 1016.08 1015.92 1015.80 1015.80 1015.72 1015.68 1015.56 1015.44 1015.32 1015.12 1014.96 1014.80 1014.72 1014.48 1014.44 1014.32 1014.16 1013.96 1013.80 1013.48 1013.16 1012.84 1012.56 1012.28 1012.08 1011.88 1011.68 1011.48 1011.24 1011.04 1010.80 1010.52 1010.32 1010.16 1009.96 1009.68 1009.48 1009.28 1009.24 1009.32 1009.24 1008.92 1008.88 1008.92 1008.92 1008.96 1008.92 1008.68 1008.48 1008.52 1008.64 1008.72 1008.48
1016.00 1016.08 1016.00 1015.76 1015.88 1016.00 1016.12 1016.12 1016.04 1016.00 1015.84 1015.76 1015.72 1015.72 1015.68 1015.60 1015.52 1015.40 1015.28 1015.08 1014.84 1014.72 1014.48 1014.32 1014.32 1014.24 1014.08 1013.92 1013.68 1013.36 1013.08 1012.88 1012.64 1012.36 1012.08 1011.88 1011.68 1011.36 1011.12 1010.88 1010.64 1010.40 1010.20 1010.00 1009.72 1009.52 1009.28 1009.12 1009.00 1009.04 1009.08 1009.12 1009.00 1008.80 1008.64 1008.56 1008.40 1008.20 1008.24 1008.28 1008.48 1008.68 1008.92
1015.88 1015.88 1015.84 1015.96 1015.92 1016.00 1016.00 1015.88 1015.80 1015.76 1015.72 1015.68 1015.68 1015.64 1015.56 1015.52 1015.40 1015.24 1015.12 1014.92 1014.76 1014.64 1014.32 1014.20 1014.20 1014.08 1013.88 1013.76 1013.44 1013.24 1013.00 1012.80 1012.56 1012.32 1012.16 1011.84 1011.56 1011.24 1011.00 1010.80 1010.52 1010.28 1010.04 1009.84 1009.56 1009.32 1009.08 1008.96 1008.92 1008.76 1008.72 1008.76 1008.60 1008.60 1008.64 1008.48 1008.12 1008.08 1008.24 1008.32 1008.36 1008.40 1008.60
1015.84 1015.88 1015.88 1015.92 1015.88 1015.96 1015.88 1015.80 1015.72 1015.76 1015.64 1015.56 1015.48 1015.44 1015.40 1015.40 1015.28 1015.16 1015.08 1014.80 1014.68 1014.44 1014.16 1014.12 1014.04 1013.96 1013.80 1013.52 1013.28 1013.04 1012.88 1012.64 1012.40 1012.28 1012.00 1011.76 1011.52 1011.20 1010.88 1010.60 1010.40 1010.24 1009.96 1009.68 1009.48 1009.16 1008.84 1008.80 1008.64 1008.44 1008.32 1008.20 1008.12 1008.12 1008.00 1007.96 1007.84 1008.04 1008.32 1008.60 1008.64 1008.52 1008.56
1015.48 1015.64 1015.76 1015.84 1015.96 1015.88 1015.80 1015.72 1015.60 1015.48 1015.40 1015.32 1015.20 1015.16 1015.04 1014.96 1015.04 1015.08 1014.88 1014.76 1014.48 1014.24 1014.16 1014.12 1013.96 1013.80 1013.60 1013.32 1013.12 1012.96 1012.72 1012.52 1012.36 1012.16 1011.88 1011.64 1011.36 1011.08 1010.80 1010.60 1010.36 1010.12 1009.88 1009.64 1009.28 1009.00 1008.92 1008.68 1008.48 1008.28 1007.96 1007.84 1007.96 1007.88 1007.56 1007.40 1007.48 1007.92 1008.12 1008.36 1008.48 1008.44 1008.48
1015.12 1015.40 1015.56 1015.64 1015.64 1015.60 1015.52 1015.36 1015.32 1015.20 1015.16 1015.12 1014.84 1014.72 1014.72 1014.68 1014.84 1014.76 1014.56 1014.44 1014.24 1014.24 1014.12 1014.04 1013.80 1013.64 1013.44 1013.20 1013.00 1012.76 1012.56 1012.40 1012.24 1012.04 1011.76 1011.44 1011.24 1010.96 1010.76 1010.56 1010.32 1009.96 1009.60 1009.40 1009.16 1009.00 1008.80 1008.48 1008.36 1008.12 1007.92 1007.72 1007.60 1007.56 1007.36 1007.20 1007.16 1007.52 1007.72 1007.80 1007.80 1007.92 1008.12
1015.32 1015.40 1015.48 1015.56 1015.60 1015.44 1015.44 1015.48 1015.36 1015.12 1015.08 1015.00 1014.96 1014.80 1014.68 1014.68 1014.60 1014.56 1014.48 1014.32 1014.32 1014.12 1014.04 1013.88 1013.76 1013.56 1013.36 1013.16 1012.92 1012.68 1012.48 1012.32 1012.12 1011.92 1011.60 1011.28 1011.08 1010.84 1010.64 1010.40 1010.12 1009.84 1009.56 1009.40 1009.16 1008.96 1008.72 1008.44 1008.24 1008.00 1007.76 1007.52 1007.36 1007.32 1007.28 1007.00 1006.88 1007.08 1007.28 1007.44 1007.44 1007.44 1007.60
1015.12 1015.20 1015.44 1015.16 1015.36 1015.40 1015.48 1015.36 1015.36 1015.32 1015.32 1015.04 1014.92 1014.76 1014.68 1014.72 1014.52 1014.60 1014.56 1014.28 1014.28 1014.08 1013.92 1013.84 1013.68 1013.44 1013.20 1013.08 1012.84 1012.60 1012.40 1012.24 1012.04 1011.72 1011.40 1011.16 1010.92 1010.72 1010.52 1010.24 1010.00 1009.80 1009.44 1009.24 1008.96 1008.64 1008.36 1008.12 1007.92 1007.84 1007.64 1007.32 1007.16 1007.08 1007.00 1006.68 1006.64 1006.80 1007.00 1007.24 1007.32 1007.36 1007.28
1014.76 1015.00 1014.96 1014.88 1014.88 1015.12 1015.12 1015.12 1015.20 1015.08 1015.12 1015.04 1014.84 1014.80 1014.76 1014.64 1014.56 1014.56 1014.48 1014.36 1014.16 1014.04 1013.92 1013.76 1013.60 1013.32 1013.12 1013.00 1012.72 1012.48 1012.24 1012.04 1011.84 1011.60 1011.28 1011.00 1010.76 1010.56 1010.32 1010.12 1009.84 1009.52 1009.16 1009.12 1008.84 1008.64 1008.44 1008.16 1007.92 1007.56 1007.40 1007.20 1007.00 1006.92 1006.72 1006.40 1006.28 1006.52 1006.68 1006.80 1006.96 1007.32 1007.16
1014.40 1014.48 1014.56 1014.64 1014.80 1014.84 1014.88 1014.88 1014.88 1014.84 1014.88 1014.92 1014.84 1014.68 1014.56 1014.52 1014.48 1014.44 1014.44 1014.32 1014.08 1014.00 1013.88 1013.68 1013.48 1013.16 1013.08 1012.92 1012.68 1012.40 1012.12 1011.84 1011.64 1011.44 1011.12 1010.88 1010.64 1010.36 1010.08 1009.76 1009.48 1009.28 1008.96 1008.96 1008.76 1008.60 1008.32 1008.04 1007.76 1007.36 1007.12 1007.00 1006.88 1006.64 1006.60 1006.32 1006.04 1006.24 1006.44 1006.56 1006.72 1006.92 1006.88
1014.08 1013.88 1014.28 1014.52 1014.80 1014.96 1014.88 1014.88 1014.96 1014.96 1014.88 1014.80 1014.88 1014.52 1014.32 1014.36 1014.32 1014.36 1014.44 1014.24 1014.08 1013.92 1013.80 1013.64 1013.40 1013.20 1013.04 1012.76 1012.48 1012.20 1011.92 1011.60 1011.36 1011.16 1010.88 1010.72 1010.40 1010.08 1009.88 1009.64 1009.44 1009.04 1008.76 1008.60 1008.36 1008.24 1008.04 1007.84 1007.60 1007.28 1006.92 1006.64 1006.56 1006.40 1006.48 1006.20 1005.92 1006.04 1006.20 1006.36 1006.44 1006.64 1006.52
1014.40 1014.40 1014.40 1014.40 1014.40 1014.40 1014.52 1014.64 1014.84 1014.92 1014.88 1014.84 1014.64 1014.24 1014.16 1014.08 1014.20 1014.16 1014.12 1014.04 1013.88 1013.80 1013.64 1013.40 1013.24 1012.96 1012.72 1012.44 1012.20 1011.96 1011.72 1011.32 1011.12 1010.88 1010.64 1010.40 1010.08 1009.76 1009.56 1009.28 1009.08 1008.88 1008.68 1008.44 1008.16 1008.00 1007.76 1007.56 1007.36 1007.24 1006.92 1006.56 1006.40 1006.20 1006.04 1006.04 1005.80 1005.64 1005.96 1006.12 1006.28 1006.44 1006.36
1014.16 1014.32 1014.44 1014.28 1014.36 1014.44 1014.60 1014.52 1014.56 1014.64 1014.60 1014.48 1014.36 1014.20 1014.00 1013.96 1014.08 1014.04 1014.04 1014.00 1013.80 1013.64 1013.36 1013.04 1012.84 1012.68 1012.48 1012.24 1012.04 1011.76 1011.48 1011.08 1010.84 1010.64 1010.28 1009.96 1009.76 1009.48 1009.28 1009.00 1008.84 1008.68 1008.56 1008.40 1008.12 1007.96 1007.80 1007.60 1007.28 1007.00 1006.76 1006.40 1006.20 1006.08 1005.88 1005.68 1005.76 1005.48 1005.72 1005.92 1006.08 1006.20 1006.36
1014.00 1013.96 1013.76 1013.84 1014.28 1014.72 1014.72 1014.64 1014.40 1014.24 1014.20 1014.16 1014.16 1014.04 1013.96 1013.92 1014.08 1014.08 1013.88 1013.80 1013.68 1013.36 1012.88 1012.72 1012.68 1012.48 1012.32 1012.12 1011.80 1011.48 1011.16 1010.84 1010.52 1010.20 1009.92 1009.56 1009.36 1009.32 1009.12 1008.76 1008.56 1008.40 1008.28 1008.16 1008.08 1008.04 1007.84 1007.52 1007.24 1006.92 1006.52 1006.20 1005.96 1005.80 1005.68 1005.44 1005.52 1005.60 1005.52 1005.72 1005.84 1005.96 1006.04
1014.48 1014.40 1014.32 1014.32 1014.28 1014.12 1014.48 1014.64 1014.48 1014.28 1014.16 1014.00 1013.88 1013.92 1013.88 1013.84 1013.96 1013.88 1013.80 1013.84 1013.44 1012.96 1012.76 1012.56 1012.40 1012.28 1012.12 1011.88 1011.60 1011.28 1010.92 1010.56 1010.28 1010.00 1009.60 1009.36 1009.16 1009.12 1009.04 1008.68 1008.40 1008.24 1008.04 1008.00 1007.92 1007.84 1007.64 1007.40 1006.92 1006.60 1006.32 1006.04 1005.68 1005.44 1005.28 1005.20 1005.16 1005.20 1005.24 1005.32 1005.60 1005.72 1005.84
1014.28 1014.24 1014.08 1013.68 1013.60 1013.84 1014.36 1014.68 1014.40 1014.20 1013.96 1013.84 1013.80 1013.80 1013.72 1013.72 1013.88 1013.80 1013.76 1013.56 1013.00 1012.88 1012.72 1012.52 1012.28 1012.16 1011.96 1011.68 1011.40 1011.08 1010.68 1010.32 1010.00 1009.60 1009.36 1009.16 1009.04 1008.96 1008.84 1008.60 1008.36 1008.12 1007.96 1007.88 1007.88 1007.72 1007.52 1007.00 1006.64 1006.32 1006.12 1005.96 1005.68 1005.36 1005.12 1004.96 1004.92 1004.92 1005.00 1005.08 1005.24 1005.40 1005.56
1014.36 1014.36 1014.24 1014.16 1014.20 1014.12 1014.40 1014.56 1014.44 1014.20 1014.08 1013.84 1013.76 1013.60 1013.52 1013.48 1013.68 1013.64 1013.64 1013.16 1012.80 1012.84 1012.68 1012.44 1012.20 1012.04 1011.84 1011.48 1011.12 1010.76 1010.36 1010.00 1009.72 1009.40 1009.04 1008.80 1008.76 1008.68 1008.56 1008.44 1008.20 1008.12 1007.72 1007.64 1007.56 1007.40 1007.24 1006.96 1006.84 1006.88 1006.16 1005.68 1005.60 1005.28 1005.04 1004.84 1004.68 1004.60 1004.60 1004.80 1004.84 1005.00 1005.12
1014.16 1014.08 1014.04 1014.12 1014.20 1014.32 1014.40 1014.16 1014.04 1014.04 1014.12 1013.88 1013.56 1013.44 1013.28 1013.20 1013.24 1013.56 1013.28 1012.88 1012.72 1012.52 1012.40 1012.32 1012.20 1012.04 1011.72 1011.28 1010.80 1010.44 1010.04 1009.84 1009.44 1009.04 1008.72 1008.40 1008.32 1008.24 1008.12 1008.12 1008.00 1007.88 1007.60 1007.40 1007.20 1007.08 1006.92 1006.68 1006.24 1006.20 1006.20 1005.84 1005.28 1005.08 1004.88 1004.68 1004.64 1004.64 1004.44 1004.40 1004.44 1004.60 1004.68
1014.32 1014.36 1014.48 1014.60 1014.40 1014.28 1014.28 1014.20 1014.16 1014.08 1014.08 1014.00 1013.48 1013.24 1013.04 1013.04 1013.00 1012.96 1012.84 1012.80 1012.56 1012.32 1012.16 1012.24 1012.12 1011.84 1011.48 1011.12 1010.68 1010.24 1009.92 1009.72 1009.32 1008.92 1008.48 1008.12 1008.00 1007.88 1007.76 1007.64 1007.56 1007.48 1007.36 1007.16 1007.04 1006.84 1006.60 1006.36 1006.12 1006.00 1006.16 1006.12 1005.08 1004.72 1004.64 1004.60 1004.56 1004.44 1004.24 1004.20 1004.24 1004.12 1004.08
1014.40 1014.44 1014.36 1014.28 1014.24 1014.28 1014.28 1014.32 1014.32 1014.16 1014.00 1013.88 1013.44 1013.20 1013.08 1013.00 1012.92 1012.72 1012.64 1012.56 1012.40 1012.24 1012.20 1012.16 1011.96 1011.76 1011.36 1010.84 1010.36 1010.08 1009.76 1009.52 1009.24 1008.92 1008.44 1008.04 1007.80 1007.72 1007.56 1007.36 1007.16 1007.08 1006.96 1006.64 1006.52 1006.48 1006.36 1006.00 1005.88 1005.68 1005.00 1004.72 1004.56 1004.48 1004.56 1004.52 1004.36 1004.36 1004.52 1004.56 1004.44 1004.36 1004.04
1014.44 1014.48 1014.40 1014.40 1014.32 1014.28 1014.40 1014.28 1014.20 1014.04 1013.92 1013.68 1013.32 1013.16 1013.08 1012.96 1012.72 1012.56 1012.48 1012.40 1012.24 1012.20 1012.16 1012.00 1011.76 1011.52 1011.16 1010.60 1010.16 1009.88 1009.52 1009.24 1008.92 1008.68 1008.36 1007.96 1007.68 1007.36 1007.20 1007.16 1006.96 1006.64 1006.36 1006.00 1005.84 1005.84 1005.80 1005.60 1005.28 1005.16 1005.16 1004.64 1004.40 1004.56 1004.56 1004.40 1004.20 1004.08 1004.16 1004.40 1004.60 1004.60 1004.40
1014.52 1014.44 1014.36 1014.12 1014.08 1014.04 1014.08 1014.00 1013.96 1013.88 1013.72 1013.48 1013.20 1013.12 1013.04 1012.84 1012.60 1012.44 1012.32 1012.24 1012.08 1012.00 1012.04 1011.88 1011.60 1011.28 1010.84 1010.32 1009.96 1009.60 1009.40 1009.28 1009.04 1008.64 1008.20 1007.84 1007.56 1007.28 1006.88 1006.48 1006.44 1006.36 1006.28 1005.96 1005.68 1005.64 1005.68 1005.80 1005.64 1005.00 1004.64 1004.56 1004.32 1004.20 1004.44 1004.24 1003.84 1004.24 1004.52 1004.56 1004.52 1004.52 1004.52
1014.56 1014.48 1014.36 1014.12 1014.16 1014.08 1014.04 1013.96 1013.80 1013.64 1013.52 1013.32 1013.12 1013.04 1012.88 1012.72 1012.48 1012.36 1012.20 1012.04 1011.92 1011.88 1011.84 1011.68 1011.48 1011.12 1010.64 1010.24 1009.92 1009.68 1009.60 1009.32 1008.96 1008.60 1008.28 1007.88 1007.56 1007.24 1007.08 1006.56 1005.92 1005.76 1005.76 1005.64 1005.44 1005.36 1005.28 1005.24 1005.24 1005.16 1005.16 1005.20 1004.76 1004.12 1004.16 1004.20 1004.20 1004.24 1004.24 1004.28 1004.36 1004.44 1004.40
1014.28 1014.20 1014.16 1014.04 1014.08 1014.04 1013.96 1013.84 1013.72 1013.60 1013.44 1013.32 1013.16 1012.92 1012.68 1012.56 1012.36 1012.28 1011.92 1011.76 1011.80 1011.72 1011.64 1011.52 1011.40 1011.20 1010.80 1010.36 1009.92 1009.60 1009.36 1009.04 1008.76 1008.48 1008.20 1007.84 1007.52 1007.28 1007.08 1006.68 1006.28 1005.64 1005.24 1005.16 1005.08 1005.00 1004.92 1004.84 1004.76 1004.72 1004.72 1004.80 1004.88 1004.68 1004.12 1003.92 1003.96 1004.00 1004.04 1004.12 1004.28 1004.40 1004.56
Wind_Speed
5 5 5 5 5 6 6 6 6 6 6 6 6 7 6 5 5 5 5 6 6 6 6 5 5 5 6 5 5 5 5 4 4 5 5 5 5 6 7 7 8 7 7 7 7 7 8 8 9 10 8 9 13 10 10 10 10 10 9 8 10 11 10
4 5 5 4 5 5 6 5 5 5 5 6 6 7 6 7 5 5 5 5 6 6 5 5 5 5 4 5 4 4 5 5 6 5 5 5 6 6 7 8 8 8 8 8 7 7 8 9 9 10 11 11 11 9 11 11 11 11 9 8 11 11 10
4 4 5 4 4 5 5 4 5 4 5 6 7 7 7 6 6 6 5 6 7 7 6 6 5 5 4 4 5 5 5 5 6 7 7 7 8 8 7 7 8 9 9 9 8 8 8 9 9 9 10 11 10 9 9 12 12 12 11 12 13 11 10
4 4 5 5 4 4 3 3 5 4 5 6 6 7 7 7 5 5 6 7 7 8 7 7 6 6 5 6 5 5 5 6 6 6 7 8 8 8 7 8 8 8 9 9 9 8 8 8 10 9 10 10 10 9 8 10 14 13 13 12 11 10 10
5 5 4 3 3 3 2 3 3 4 4 4 5 5 6 7 7 7 7 7 7 8 7 7 6 6 5 5 5 5 6 7 6 6 7 7 8 8 9 9 8 9 9 9 9 9 9 10 10 10 10 10 9 7 7 8 12 14 13 14 12 10 8
7 5 3 3 3 2 1 2 2 3 3 4 5 5 6 6 5 7 7 8 8 8 8 8 7 6 6 6 5 6 7 6 6 6 6 6 7 8 9 9 9 10 10 10 9 9 10 10 10 10 11 10 10 9 11 12 12 12 13 12 11 9 8
5 4 3 2 2 2 3 1 1 2 3 4 3 3 5 5 6 5 5 6 7 9 9 10 9 8 7 6 6 7 7 7 7 7 6 7 7 8 8 9 9 9 9 9 9 9 10 10 10 10 10 12 11 11 11 11 11 9 13 10 11 9 9
5 4 3 2 1 1 3 2 1 1 2 1 3 3 5 6 6 6 5 5 5 6 6 7 7 7 8 8 8 8 8 8 7 6 6 7 8 8 8 9 8 9 9 10 9 9 10 11 10 10 11 12 12 12 13 12 12 15 11 12 13 12 9
6 4 2 1 1 1 2 3 1 2 2 2 3 4 4 5 6 6 6 6 6 6 7 6 6 6 6 7 7 9 9 8 8 7 7 7 7 8 8 8 9 9 10 10 10 9 9 10 10 11 11 11 11 12 13 14 14 13 8 14 13 13 12
7 6 4 2 1 2 2 2 2 2 2 3 3 4 5 5 5 5 6 7 7 8 8 7 6 6 6 7 8 8 8 8 8 9 8 8 8 9 9 8 8 9 9 10 9 10 9 9 9 9 10 11 11 12 12 13 13 12 11 15 13 12 13
7 5 4 4 3 1 1 1 2 2 2 3 4 4 5 5 5 5 7 7 8 8 8 8 7 7 7 8 9 8 8 9 8 9 9 10 9 10 10 10 9 8 9 10 10 10 9 8 8 8 9 10 12 10 12 14 14 14 12 15 13 12 12
7 5 4 3 2 2 1 1 1 1 1 3 4 5 5 5 6 7 7 8 8 9 9 9 8 8 9 9 9 9 9 9 9 9 10 10 11 11 10 10 9 9 9 9 10 10 10 9 8 8 9 10 11 10 11 12 13 14 15 14 13 12 12
6 5 4 4 2 1 2 2 1 1 0 2 3 3 3 4 5 6 7 8 8 8 8 9 8 9 10 10 10 10 10 10 9 9 9 10 10 10 10 10 10 10 10 9 10 10 10 10 9 8 9 8 8 11 12 12 13 13 14 13 12 13 14
6 5 5 4 4 3 2 1 1 0 1 2 2 2 3 4 5 6 6 7 7 7 7 7 8 9 10 10 10 10 10 10 11 11 10 10 10 10 10 10 10 10 10 10 10 11 10 11 10 9 9 7 7 8 8 9 10 12 11 11 12 11 11
7 6 5 6 4 4 2 1 0 2 2 3 4 5 5 5 6 6 6 7 7 7 8 8 8 9 10 10 11 11 11 11 11 10 10 10 10 10 11 11 10 10 10 10 10 9 10 10 9 9 10 9 8 7 8 10 10 9 9 8 12 13 12
6 6 5 4 3 1 1 0 2 3 4 5 6 7 7 7 7 7 8 8 8 8 8 8 9 9 10 11 11 11 11 11 11 11 11 11 11 10 11 10 10 10 10 11 11 10 10 10 9 8 9 9 8 8 8 8 7 11 15 13 10 9 12
6 5 4 3 2 0 1 2 3 4 6 6 7 7 7 7 7 7 8 8 9 9 9 9 9 9 11 11 11 11 11 11 10 10 11 11 11 11 11 11 10 10 11 11 11 11 10 10 10 9 8 9 10 8 7 9 7 12 14 15 16 14 11
6 5 4 3 1 0 2 4 5 6 7 7 7 7 7 7 7 7 8 8 9 9 9 9 10 11 11 11 11 11 11 11 11 11 11 11 11 11 11 11 11 11 11 11 11 11 10 11 10 10 9 8 9 10 9 7 9 10 8 10 12 13 8
5 4 3 2 1 1 3 5 6 7 8 8 8 8 9 8 8 8 8 9 9 9 9 10 11 12 12 11 11 11 11 11 11 12 11 11 11 11 10 11 11 11 11 11 11 10 11 11 10 10 10 9 9 10 10 10 6 8 9 13 17 14 11
3 3 2 2 1 2 3 4 6 7 7 8 9 10 9 9 9 8 9 9 9 10 10 11 12 12 12 12 12 11 11 11 11 12 11 11 11 11 11 11 11 11 10 10 10 10 11 11 11 10 10 9 9 9 9 10 6 11 13 14 15 13 11
4 3 2 2 1 2 4 4 5 6 7 8 9 9 8 8 8 9 9 9 10 11 11 11 12 12 12 12 12 12 12 12 12 12 12 11 11 11 11 11 11 11 10 8 9 10 10 11 11 9 9 10 9 8 8 8 8 10 13 13 14 13 13
4 3 2 1 2 2 3 5 6 7 7 7 8 8 8 8 8 9 10 10 11 11 11 12 11 12 12 12 12 12 12 12 13 13 13 12 12 12 12 11 11 11 9 8 9 9 9 10 10 10 10 10 9 9 10 9 9 11 11 11 12 12 8
3 2 2 1 1 2 2 3 5 6 7 8 9 8 8 8 9 9 11 11 11 11 11 12 12 12 12 12 13 13 13 13 13 14 13 12 12 12 12 11 11 10 8 9 9 9 9 9 10 9 10 10 10 10 10 10 8 12 12 12 13 9 7
3 3 2 1 1 3 3 3 5 6 7 9 9 8 8 8 8 10 10 11 11 11 12 12 12 12 12 13 13 13 13 13 13 13 13 13 13 12 11 11 10 10 8 9 9 9 9 9 10 10 9 10 10 10 10 10 7 11 12 12 12 10 8
3 2 1 2 3 4 5 5 5 7 8 9 9 9 8 9 10 10 10 10 11 11 12 12 12 12 13 13 13 14 14 13 13 13 13 13 13 12 12 11 10 9 9 9 9 9 9 9 9 9 9 9 10 11 11 11 8 9 12 13 12 9 9
2 3 3 3 4 4 4 5 7 9 9 9 9 9 9 9 8 10 10 11 11 11 12 12 12 12 13 13 13 13 13 13 13 13 13 13 12 12 11 10 10 10 9 9 9 9 9 9 9 10 9 9 9 9 9 10 10 7 13 12 12 12 10
2 2 5 5 4 4 6 6 8 8 8 8 8 9 9 8 9 10 10 10 11 12 12 12 12 12 13 12 13 14 14 13 13 14 13 12 12 11 11 10 10 10 9 9 9 9 9 10 10 10 10 9 9 9 9 9 9 9 10 12 12 13 11
3 4 5 3 1 4 7 8 9 9 8 8 8 8 8 8 9 8 10 11 12 13 12 12 13 12 13 14 14 14 14 14 13 13 12 11 11 11 11 10 10 9 9 8 8 10 10 10 10 9 10 9 8 9 9 9 9 10 8 11 12 13 13
4 5 5 5 6 5 5 8 9 9 8 8 8 7 8 9 10 10 9 11 13 12 12 12 13 13 13 14 14 14 14 14 14 13 11 11 11 11 11 10 9 9 9 9 9 10 11 10 10 10 9 9 8 7 8 7 8 8 10 9 11 12 13
4 5 6 7 7 7 7 8 9 9 10 8 8 8 8 9 9 9 10 12 10 11 12 12 13 13 13 13 13 14 14 14 14 13 12 12 11 10 10 9 9 9 8 8 8 9 9 9 9 9 9 9 8 7 6 6 7 6 8 8 10 11 12
5 6 7 7 8 8 7 8 9 9 10 9 9 8 7 7 9 11 12 11 10 11 12 13 13 13 13 14 14 14 13 13 13 13 12 11 10 10 9 10 10 9 8 8 8 9 9 9 9 10 10 9 8 7 5 6 6 7 6 9 10 11 11
6 5 7 7 8 7 8 9 9 9 10 10 10 9 7 8 9 11 11 10 11 11 12 12 12 13 14 14 14 14 14 14 14 13 12 12 10 9 8 9 9 9 8 8 8 8 9 9 9 8 9 9 8 7 6 6 6 6 6 6 8 9 12
6 7 7 8 7 8 8 9 9 10 10 10 9 9 9 10 9 9 10 10 10 12 11 12 13 13 14 14 14 14 13 13 12 12 12 12 10 9 8 8 8 8 8 8 8 8 9 9 9 8 7 10 8 7 7 6 6 6 5 5 5 6 6
6 6 6 7 8 8 9 9 10 10 11 10 10 9 10 10 9 10 10 10 10 11 12 12 12 14 15 16 13 12 12 12 15 15 12 11 11 11 10 8 9 9 9 8 8 8 9 9 9 10 9 8 8 7 7 7 6 5 5 5 5 6 6
6 7 7 7 7 8 8 9 10 10 10 10 9 10 10 10 10 10 10 10 10 10 12 13 14 14 15 15 13 12 12 12 12 12 12 12 12 11 10 10 10 9 10 10 10 9 9 10 9 8 9 10 8 7 8 7 7 3 6 3 2 3 4
6 7 7 7 7 8 9 9 9 10 10 10 9 9 9 10 10 10 10 10 10 12 13 13 13 14 14 14 13 13 12 12 12 12 12 13 12 13 12 11 11 11 11 11 11 10 10 9 11 11 9 9 9 8 8 8 5 5 3 5 6 7 6
7 7 8 8 9 9 9 9 9 10 11 10 9 9 9 10 10 10 10 10 11 12 13 13 13 13 14 14 13 14 14 12 12 12 12 12 13 13 13 13 11 11 16 15 14 13 14 14 15 16 16 13 12 10 11 12 13 15 13 11 9 8 8
7 8 8 8 8 9 9 10 10 10 10 9 9 9 10 10 10 10 11 11 11 12 12 13 12 12 13 14 14 14 14 13 13 13 12 12 12 12 12 12 12 11 9 15 16 16 17 17 17 17 16 15 14 12 10 11 13 14 12 9 6 7 7
Wind_Direction
119 114 105 102 75 60 54 51 40 38 41 41 37 35 42 43 40 33 37 32 28 26 27 19 12 11 5 0 2 350 343 333 323 310 302 286 280 277 278 277 275 270 271 268 265 262 267 270 270 265 251 244 251 234 228 219 213 211 216 230 242 242 238
118 107 95 85 87 73 57 47 36 39 29 32 26 24 27 29 25 30 39 41 27 21 14 9 356 1 355 354 347 349 335 335 325 313 303 294 282 278 270 267 268 269 263 261 260 258 256 250 249 251 250 245 247 252 247 228 217 211 204 213 237 237 233
128 117 99 85 74 70 65 53 47 39 24 32 26 20 25 25 25 30 25 24 20 16 16 7 351 358 338 339 329 330 333 329 326 318 312 309 305 301 292 277 266 263 263 265 257 255 248 246 241 244 246 248 244 238 249 257 231 217 205 213 225 228 230
132 127 113 108 94 89 69 63 54 43 37 34 29 19 20 21 18 25 21 14 10 11 9 10 358 357 347 341 334 328 322 322 316 317 313 309 308 306 298 293 284 274 270 262 257 253 255 252 246 241 239 243 244 241 239 244 249 225 213 208 221 225 233
146 146 128 137 135 124 92 62 61 55 45 40 35 14 16 11 8 14 16 12 8 6 3 1 358 357 345 354 346 333 329 314 309 306 309 307 304 302 299 297 293 286 279 275 269 259 251 249 252 248 241 237 235 228 225 240 248 240 222 213 212 207 231
157 157 147 153 133 123 96 77 36 50 46 36 24 9 8 9 357 11 8 6 3 358 356 353 351 348 342 344 331 328 320 314 306 298 293 295 299 299 299 298 298 293 284 279 278 274 275 267 259 251 250 244 232 226 230 232 237 251 230 213 207 191 205
153 151 149 155 129 169 162 126 50 48 20 28 16 8 356 349 1 10 5 0 357 353 350 349 344 339 337 329 323 321 319 315 311 301 297 291 292 293 293 293 292 292 293 290 281 277 272 267 262 258 254 251 244 235 233 232 237 230 239 220 206 199 199
156 154 163 154 187 73 59 79 51 71 60 8 1 356 349 348 358 352 352 349 337 344 344 335 336 330 325 324 322 322 323 322 309 299 293 294 295 290 291 293 294 292 293 289 282 278 274 269 263 261 254 252 246 238 233 227 227 235 221 228 221 199 197
158 162 173 122 135 114 43 53 13 353 3 356 352 351 350 352 348 341 341 337 336 332 336 330 326 317 309 308 309 313 317 317 314 311 299 290 289 291 292 293 291 295 292 292 290 279 270 272 270 266 265 258 249 243 239 234 229 226 227 238 215 203 201
161 164 166 157 22 9 58 334 331 318 335 351 353 353 353 351 336 334 332 336 330 332 332 327 321 316 314 309 307 306 305 306 309 307 305 298 293 289 292 291 293 293 292 291 290 287 284 280 277 275 268 265 256 246 245 242 238 234 222 225 220 211 207
160 171 163 179 184 119 4 325 329 335 323 341 346 349 346 339 336 328 331 330 331 329 328 324 320 318 316 312 308 306 304 303 302 302 302 299 296 293 290 291 290 290 291 293 291 290 285 279 273 267 267 263 260 261 248 240 238 237 228 232 227 216 212
162 173 175 190 159 195 218 336 303 274 347 332 342 345 339 333 330 330 329 329 330 329 325 325 322 321 317 314 310 307 304 301 300 299 301 300 297 294 293 294 292 290 289 290 292 292 289 279 271 266 260 265 264 249 253 252 238 236 234 223 221 219 215
170 172 179 188 188 199 204 216 156 126 311 331 339 326 320 322 326 326 324 320 324 322 320 319 320 319 315 313 310 308 305 302 299 299 297 297 294 293 293 293 294 292 290 290 291 291 291 289 277 270 263 254 250 252 249 247 243 239 238 232 221 220 216
168 173 177 178 194 204 191 144 135 304 339 311 321 317 316 320 323 321 316 315 316 317 317 316 316 313 310 310 310 309 310 308 307 304 299 295 293 291 292 293 293 293 291 289 288 289 289 291 289 280 274 258 246 243 256 262 259 247 239 241 234 225 227
179 184 185 198 193 182 180 127 28 340 348 339 336 340 335 330 326 321 319 317 317 320 318 316 309 307 308 312 315 316 315 312 308 304 301 297 293 292 292 293 294 292 290 288 288 287 289 289 287 282 279 274 265 251 245 248 246 246 245 239 245 246 235
182 189 201 208 146 158 136 49 355 355 345 341 344 339 337 334 330 329 324 323 323 322 320 317 311 310 316 317 317 317 316 312 309 305 303 300 297 295 294 294 295 294 292 290 288 287 287 286 286 279 274 272 264 259 259 252 242 245 250 247 242 240 241
186 195 182 195 168 166 50 338 357 351 344 346 342 338 333 331 328 324 321 322 322 320 320 316 312 314 318 319 318 317 314 311 308 307 301 300 298 296 296 294 294 293 293 290 288 286 287 284 284 283 276 271 268 255 246 252 252 244 240 247 251 248 246
182 188 182 175 152 41 337 346 353 347 344 342 337 336 332 330 326 322 324 323 320 319 315 313 316 319 319 318 317 316 314 310 309 305 302 300 298 297 297 296 293 292 291 291 290 288 288 287 285 284 279 275 276 271 260 244 232 241 279 288 273 256 251
171 186 163 164 159 325 345 353 348 346 343 339 336 334 334 332 326 326 325 320 318 313 312 318 322 321 320 319 317 316 313 310 308 306 304 305 301 299 297 294 293 290 291 291 292 291 288 288 288 286 286 281 274 273 270 267 207 166 215 240 257 252 239
179 150 153 172 196 312 356 346 344 341 339 333 329 333 331 327 322 320 319 314 314 316 319 321 322 321 320 319 318 316 313 311 309 306 304 304 303 300 297 294 292 293 291 294 292 290 289 287 287 286 283 282 281 281 281 274 237 193 209 226 237 242 238
174 178 187 180 278 343 355 339 326 326 332 332 330 321 319 319 318 317 313 317 318 320 320 320 319 319 319 318 317 316 315 313 308 305 303 302 301 298 295 294 294 293 294 294 291 290 290 291 291 288 285 285 283 281 276 275 255 214 210 217 230 230 231
175 187 215 319 358 346 335 329 330 324 325 320 312 314 313 313 316 314 316 320 319 320 320 319 317 318 319 317 317 315 314 310 307 304 302 301 300 297 296 296 295 295 295 288 286 286 287 287 288 288 288 286 286 282 275 269 237 228 230 235 241 231 227
148 192 218 224 328 338 336 317 306 317 315 307 308 309 312 315 315 315 317 319 320 319 318 317 316 318 320 317 317 316 313 309 306 302 300 301 300 298 298 296 295 292 293 289 286 286 287 288 287 288 287 288 287 281 277 277 223 213 227 231 233 228 238
174 203 224 346 312 281 273 288 299 302 307 312 303 304 305 307 311 313 313 315 316 317 316 315 317 318 318 316 317 314 311 307 304 300 299 299 298 299 298 297 294 292 290 286 287 284 284 287 285 283 281 283 284 282 284 278 256 204 222 232 229 221 227
222 265 58 312 301 307 302 304 304 305 303 300 299 305 304 305 310 310 311 315 315 314 312 314 317 318 316 315 314 313 310 306 301 298 298 298 297 299 299 298 296 292 291 285 281 282 283 280 281 282 283 282 283 287 279 275 265 190 209 214 223 220 240
298 310 292 264 263 281 298 297 293 296 306 308 309 310 305 309 308 308 314 314 314 311 313 316 317 314 311 312 312 311 308 304 304 301 299 298 297 296 296 294 291 290 289 285 281 283 281 278 278 279 283 286 285 284 281 278 274 237 193 208 218 219 236
278 271 284 291 298 307 291 300 303 306 306 310 310 307 308 310 311 314 316 311 306 312 315 317 314 311 312 311 310 309 306 302 304 304 302 299 296 295 293 292 291 294 292 287 286 284 281 278 276 275 277 278 280 281 279 278 280 270 190 207 214 221 221
268 282 279 269 301 291 298 303 307 310 309 311 307 306 308 310 310 311 311 310 312 316 316 315 314 312 312 310 309 309 305 304 306 303 301 298 297 297 295 296 296 294 290 284 281 277 272 272 273 274 273 273 273 270 273 273 252 263 227 200 215 217 218
303 297 306 305 278 284 306 307 311 312 314 314 309 312 309 309 311 312 311 308 312 317 316 315 313 312 311 310 310 309 307 305 305 304 303 301 301 301 301 300 293 290 284 282 279 275 273 271 271 272 273 271 270 271 274 273 272 240 255 213 204 218 219
277 288 287 291 309 327 331 309 307 310 314 314 314 311 310 313 312 310 309 308 320 317 314 313 314 313 311 310 310 309 308 307 305 303 301 301 303 301 299 296 294 292 287 279 272 271 273 275 272 268 266 270 268 275 274 269 266 253 230 244 219 210 215
313 313 309 312 318 324 317 308 309 310 312 316 317 315 315 315 311 312 310 316 319 316 313 313 313 313 311 311 310 309 308 306 304 303 301 301 300 298 295 291 290 289 285 278 272 270 275 278 277 276 275 265 268 273 271 265 272 277 245 223 232 221 222
296 302 303 314 312 322 315 310 311 313 316 317 322 319 318 313 315 313 316 319 317 314 314 313 314 312 311 309 309 309 308 306 305 304 302 300 300 295 288 286 286 287 288 285 281 279 277 278 280 283 285 289 280 273 274 274 272 271 272 259 236 233 221
310 308 311 309 322 322 320 323 317 319 321 318 322 321 320 318 318 317 317 318 317 315 315 314 311 309 310 311 311 310 308 307 307 309 305 301 301 298 295 291 287 283 277 276 280 280 279 280 278 274 258 256 265 278 274 276 277 277 279 275 262 263 250
315 312 314 319 319 325 319 319 317 318 321 319 322 321 320 320 319 320 320 320 317 316 315 310 312 312 311 311 310 308 308 306 304 302 301 305 305 303 298 291 288 286 283 282 280 282 281 280 280 279 282 290 293 287 285 275 270 262 248 254 283 286 278
318 313 314 315 324 321 319 317 317 316 316 316 319 320 319 319 319 321 320 319 317 316 311 312 311 312 308 309 310 308 310 308 309 307 303 303 302 299 297 294 291 287 285 285 285 283 282 281 281 280 283 285 289 291 287 286 283 304 52 21 357 286 311
312 310 311 315 317 319 319 318 315 315 314 314 318 318 318 319 319 319 320 320 317 316 312 311 311 311 311 311 310 309 311 312 308 304 302 304 305 305 301 285 260 259 276 282 272 255 257 258 265 274 293 296 288 287 284 281 319 46 327 293 301 306 282
312 312 312 318 317 320 321 320 316 312 311 315 319 317 319 319 318 321 321 318 317 317 313 311 310 311 311 313 311 313 312 306 303 305 304 301 302 304 304 301 292 244 231 243 258 263 258 249 248 256 259 258 271 277 279 284 290 287 283 283 273 265 267
315 311 312 312 313 316 318 319 318 314 315 320 317 317 320 319 320 321 317 320 319 316 313 312 313 312 312 312 311 310 308 304 302 302 300 300 303 305 303 297 293 297 248 228 237 245 247 250 251 251 251 247 239 251 274 260 243 250 258 252 244 262 293